Погода в Шувалове

Россия / Воронежская область     50°30′44″N   40°29′30″E
темп.,
°C
ветер,
м/с
пор.,
м/с
влажн.,
%
обл.,
%
осадки,
мм/ч
давл.,
гПа
погр.,
м
10 апреля, сб
сб1000:00+4ссв4116391 0.0 1025277
03:00+4ссв51267100 0.0 1025336
06:00+3ссв5126868 0.0 1025305
09:00+7ссв71153100 0.0 1024821
12:00+10ссв7837100 0.0 10241243
15:00+12ссв89355 0.0 10221323
18:00+10ссв694390 0.0 1023918
21:00+6ссв3962100 0.0 1024276
11 апреля, вс
вс1100:00+5с51364100 0.0 1024414
03:00+4с5146781 0.0 1025410
06:00+4ссв6156980 0.0 1026475
09:00+7ссв81358100 0.0 1025632
12:00+11св81060100 0.0 1025923
15:00+10св71174100 0.0 1024997
18:00+9св6108296 0.0 1025657
21:00+8св5108997 0.0 1025319
12 апреля, пн
пн1200:00+7св41096100 0.0 1024200
03:00+7св51195100 0.0 1024196
06:00+8всв51192100 0.0 1023178
09:00+14в61257100 0.0 1023344
12:00+20вюв7103698 0.0 1023852
15:00+22вюв8103181 0.0 10221484
18:00+18вюв61144100 0.0 1023456
21:00+14вюв4106273 0.0 1024185
13 апреля, вт
вт1300:00+12в4136447 0.0 1024255
03:00+10вюв5116683 0.0 1024193
06:00+9вюв41170100 0.0 1024197
09:00+14вюв61053100 0.0 1024393
12:00+20вюв7113099 0.0 10231362
15:00+21юв8102967 0.0 10221583
18:00+18вюв4943100 0.0 1022323
21:00+15вюв51159100 0.0 1023293
14 апреля, ср
ср1400:00+14в495985 0.0 1022198
03:00+13вюв61252100 0.0 1021324
06:00+10вюв496444 0.0 1021166
09:00+15юв575191 0.0 1021431
12:00+19юв672776 0.0 10201505
15:00+20ююв5726100 0.0 10191908
18:00+18вюв373732 0.0 1018191
21:00+14вюв4104780 0.0 1017205